Baton Rouge, LA

4:56 AM CDT on September 24, 2017 (GMT -0500)
Baton Rouge Metro-Ryan

Weather History for KBTR - October, 2013

Change the Weather History Date:

Sunday, October 6, 2013

  Actual Average Record
Temperature  
Mean Temperature 67 °F 72 °F  
Max Temperature 76 °F 84 °F 97 °F (1904)
Min Temperature 57 °F 61 °F 42 °F (1932)
Degree Days  
Heating Degree Days 0 1  
Month to date heating degree days 0 1  
Since 1 July heating degree days 0 3  
Cooling Degree Days 2 8  
Month to date cooling degree days 74 51  
Year to date cooling degree days 2519 2622  
Growing Degree Days 18 (Base 50)    
Moisture  
Dew Point 64 °F    
Average Humidity 79    
Maximum Humidity 100    
Minimum Humidity 57    
Precipitation  
Precipitation T in 0.14 in 2.20 in (1998)
Month to date precipitation 0.99 0.84  
Year to date precipitation 60.55 47.09  
Snow  
Snow 0.00 in - - ()
Month to date snowfall 0.0  
Since 1 July snowfall 0.0  
Since 1 September snowfall 0.0  
Snow Depth 0.00 in    
Sea Level Pressure  
Sea Level Pressure 29.91 in    
Wind  
Wind Speed 5 mph (NNW)    
Max Wind Speed 14 mph    
Max Gust Speed 21 mph    
Visibility 10 miles    
Events Rain    
T = Trace of Precipitation, MM = Missing Value Source: NWS Daily Summary

Daily Weather History Graph

Daily Weather History Graph

Search for Another Location

Airport or City:

Trip Planner

Search our weather history database for the weather conditions in past years. The results will help you decide how hot, cold, wet, or windy it might be!

Date:

Astronomy

Oct. 06, 2013 Rise Set
Actual Time 7:01 AM CDT 6:43 PM CDT
Civil Twilight 6:37 AM CDT 7:07 PM CDT
Nautical Twilight 6:09 AM CDT 7:35 PM CDT
Astronomical Twilight 5:41 AM CDT 8:03 PM CDT
Moon 8:36 AM CDT (10/6) 7:53 PM CDT (10/6)
Length of Visible Light 12h 30m
Length of Day
11h 42m
Waxing Crescent, 3% of the Moon is Illuminated
Oct 6
Waxing Crescent
Oct 11
First Quarter
Oct 18
Full
Oct 26
Last Quarter
Nov 3
New

Hourly Weather History & Observations

Time (CDT) Temp. Dew Point Humidity Pressure Visibility Wind Dir Wind Speed Gust Speed Precip Events Conditions
12:53 AM 73.0 °F 72.0 °F 96% 29.90 in 10.0 mi Calm Calm - N/A   Clear
1:53 AM 72.0 °F 71.1 °F 97% 29.88 in 10.0 mi ENE 3.5 mph - N/A   Partly Cloudy
2:53 AM 72.0 °F 71.1 °F 97% 29.87 in 10.0 mi Calm Calm - N/A   Clear
3:53 AM 71.1 °F 70.0 °F 96% 29.86 in 10.0 mi Calm Calm - N/A   Mostly Cloudy
4:53 AM 72.0 °F 71.1 °F 97% 29.86 in 10.0 mi Calm Calm - N/A   Overcast
5:53 AM 73.0 °F 71.1 °F 93% 29.86 in 10.0 mi Calm Calm - N/A   Overcast
6:53 AM 73.0 °F 71.1 °F 93% 29.88 in 10.0 mi Calm Calm - N/A   Overcast
7:53 AM 73.0 °F 72.0 °F 96% 29.89 in 7.0 mi WNW 4.6 mph - 0.00 in Rain Light Rain
8:32 AM 73.4 °F 71.6 °F 94% 29.90 in 10.0 mi NNW 8.1 mph - 0.00 in   Overcast
8:53 AM 73.0 °F 70.0 °F 90% 29.90 in 10.0 mi NW 6.9 mph 17.3 mph 0.00 in   Overcast
9:33 AM 73.4 °F 69.8 °F 88% 29.91 in 10.0 mi NNW 9.2 mph 16.1 mph N/A   Mostly Cloudy
9:50 AM 73.4 °F 68.0 °F 83% 29.92 in 10.0 mi North 6.9 mph 18.4 mph N/A   Mostly Cloudy
9:53 AM 73.9 °F 68.0 °F 82% 29.92 in 10.0 mi NNW 9.2 mph 18.4 mph N/A   Mostly Cloudy
10:53 AM 69.1 °F 66.0 °F 90% 29.94 in 10.0 mi NW 10.4 mph 16.1 mph N/A   Mostly Cloudy
11:53 AM 70.0 °F 64.9 °F 84% 29.93 in 10.0 mi NW 6.9 mph - N/A   Overcast
12:28 PM 75.2 °F 66.2 °F 73% 29.91 in 10.0 mi NNW 8.1 mph - N/A   Partly Cloudy
12:50 PM 75.2 °F 68.0 °F 78% 29.91 in 10.0 mi NW 9.2 mph - N/A   Mostly Cloudy
12:53 PM 75.9 °F 68.0 °F 76% 29.91 in 10.0 mi NW 12.7 mph 17.3 mph N/A   Mostly Cloudy
1:53 PM 71.1 °F 64.9 °F 81% 29.90 in 10.0 mi NW 10.4 mph 19.6 mph N/A   Overcast
2:43 PM 71.6 °F 64.4 °F 78% 29.90 in 10.0 mi NNW 8.1 mph - N/A   Overcast
2:53 PM 73.0 °F 64.0 °F 73% 29.89 in 10.0 mi North 5.8 mph - N/A   Overcast
3:53 PM 75.0 °F 63.0 °F 66% 29.88 in 10.0 mi NW 9.2 mph 16.1 mph N/A   Mostly Cloudy
4:49 PM 75.2 °F 60.8 °F 61% 29.88 in 10.0 mi NW 9.2 mph 16.1 mph N/A   Scattered Clouds
4:53 PM 75.0 °F 60.1 °F 60% 29.88 in 10.0 mi North 9.2 mph 16.1 mph N/A   Scattered Clouds
5:53 PM 71.1 °F 55.0 °F 57% 29.89 in 10.0 mi NW 8.1 mph - N/A   Clear
6:53 PM 68.0 °F 54.0 °F 61% 29.92 in 10.0 mi NW 5.8 mph - N/A   Scattered Clouds
7:53 PM 66.0 °F 54.0 °F 65% 29.94 in 10.0 mi NW 4.6 mph - N/A   Clear
8:53 PM 64.9 °F 51.1 °F 61% 29.97 in 10.0 mi NNW 5.8 mph - N/A   Clear
9:53 PM 63.0 °F 50.0 °F 63% 29.99 in 10.0 mi NW 4.6 mph - N/A   Clear
10:53 PM 61.0 °F 51.1 °F 70% 29.99 in 10.0 mi NW 3.5 mph - N/A   Clear
11:53 PM 60.1 °F 52.0 °F 75% 29.99 in 10.0 mi Calm Calm - N/A   Clear